Location: ??????
(55.2000°N, 38.3000°E)
Time: 17:33:54
(UTC+00:00)

SKYMED 2 - Pass Details

Date: 15 November 2025
Orbit: 621 x 623 km, 97.9° (Epoch: 14 December)

Event Time Altitude Azimuth Distance (km) Brightness Sun altitude
Rises 02:10:27 0° 158° (SSE) 2,897 7.3 -23.8°
Reaches altitude 10° 02:12:38 10° 157° (SSE) 1,995 6.4 -23.5°
Maximum altitude 02:16:58 75° 72° (ENE) 652 3.7 -22.8°
Enters shadow 02:20:08 18° 349° (N) 1,527 5.4 -22.4°
